RH
100 98 94 97 101 100 99 99 95 91 90 94 99 100 99 100 100 99 98 95 89 82 78 75 72 67 61 54 52 56 65 67 64 62 62 63 60 53 43 36 42 55 62 58 57 57 50 46 47 44 42 45 50 62 73 77 84 92 92 91 94 95 91 89 89 91 86 74 80 88 81 85 95 93
101 96 90 96 101 99 100 100 93 89 88 91 97 100 100 100 99 100 100 97 91 85 82 76 72 70 65 60 56 54 60 64 60 55 57 62 64 59 52 43 36 42 54 57 56 55 48 40 37 35 33 29 27 34 48 57 63 78 95 95 89 90 93 94 91 92 93 85 85 87 79 79 82 82
101 95 89 95 101 98 100 101 97 97 93 91 95 100 100 100 100 100 100 100 93 87 87 83 75 72 70 65 59 55 57 62 64 59 53 55 61 63 60 54 43 35 40 48 51 50 47 43 37 30 30 30 24 20 28 41 47 55 77 93 93 92 92 95 96 95 96 94 92 91 89 88 82 76
100 96 90 94 100 99 99 100 100 99 93 89 92 99 101 99 99 100 99 101 95 86 89 90 80 73 73 70 62 57 55 58 65 67 61 55 55 60 64 62 54 41 34 36 40 41 43 46 42 30 25 28 28 23 20 31 47 57 66 76 86 95 96 95 98 98 98 99 98 96 96 97 92 84
97 95 94 95 99 100 99 100 100 98 93 89 88 93 100 100 99 100 99 100 99 89 89 95 89 76 74 74 67 59 56 56 62 68 69 63 55 55 59 61 60 52 42 34 33 34 33 35 34 28 25 26 26 27 22 21 30 43 52 57 69 89 99 96 93 95 97 99 99 98 99 98 96 90
95 97 98 97 99 100 99 99 101 100 98 95 90 88 94 99 100 100 99 100 100 94 90 95 95 85 79 78 72 64 58 56 60 65 69 69 63 57 55 56 59 58 53 44 36 31 28 28 28 25 25 25 23 25 25 23 20 20 26 34 46 71 95 101 94 90 93 98 99 96 97 99 96 91
98 100 100 99 99 100 100 100 100 100 100 98 95 90 88 94 100 100 99 100 100 97 92 93 97 94 88 84 79 72 63 59 60 62 64 66 65 62 58 56 56 55 54 51 42 34 29 29 30 27 25 24 23 23 23 25 24 19 16 18 27 53 85 99 96 90 88 93 96 92 90 94 93 91
100 100 100 100 100 99 100 100 99 100 100 99 99 95 88 88 95 99 100 100 99 99 96 93 95 97 97 94 89 82 74 68 67 67 66 66 65 63 60 58 56 53 50 49 44 38 32 29 28 26 26 24 22 23 24 25 25 23 19 14 23 55 85 94 93 94 94 88 88 90 87 87 90 91
100 100 100 99 100 100 100 100 99 99 100 99 100 100 94 88 90 95 99 100 99 100 98 95 95 97 100 99 96 92 84 77 73 72 70 68 67 66 63 61 58 54 49 45 41 37 33 30 28 27 27 25 23 22 24 25 25 25 23 15 16 36 64 81 78 81 94 94 90 93 90 88 91 92
100 100 100 100 100 100 99 100 100 99 100 100 99 100 98 95 93 92 94 99 100 100 99 98 98 98 99 99 98 97 91 80 71 71 73 72 71 70 68 66 63 57 50 44 41 37 32 30 28 28 27 25 24 23 23 26 26 27 26 21 14 10 26 55 62 62 82 96 98 100 97 93 96 95
100 99 100 100 100 100 100 100 100 99 100 100 99 100 100 99 99 95 92 94 97 100 100 99 100 100 99 99 99 99 98 90 82 81 84 84 82 79 75 71 68 63 55 47 42 38 35 32 29 28 28 25 24 23 23 25 28 29 27 24 21 13 12 33 57 71 83 84 84 93 96 94 96 94
99 98 99 100 99 100 100 100 100 100 100 100 99 100 100 100 100 99 97 95 94 96 98 100 100 100 100 100 99 99 100 99 96 95 95 94 91 90 87 80 74 69 63 55 48 42 38 35 32 30 29 27 26 25 24 25 26 28 28 26 25 23 17 20 37 57 64 58 57 66 73 79 86 86
99 98 99 100 100 100 100 99 100 100 100 99 99 100 100 100 100 100 100 99 96 94 94 97 100 100 100 100 100 100 100 99 99 99 99 98 97 96 95 92 86 79 73 66 58 50 44 40 37 34 32 30 29 27 26 25 25 24 26 27 26 27 26 23 22 25 29 34 38 41 43 47 55 61
100 100 99 100 100 99 99 100 101 100 100 100 100 100 100 100 100 100 100 100 99 97 95 96 99 100 100 100 100 100 100 99 99 99 99 100 99 99 98 97 95 90 84 79 71 62 54 48 43 40 36 34 32 30 28 26 25 24 23 24 25 27 29 29 27 24 22 24 26 25 27 27 28 33
100 100 99 99 99 99 99 99 99 100 100 100 100 100 100 100 100 99 100 100 99 100 99 98 99 100 100 100 100 100 100 99 99 98 100 100 99 99 97 96 97 95 92 88 82 75 67 59 53 48 43 40 37 34 33 30 28 27 25 23 23 24 26 25 25 26 25 25 25 24 26 27 26 27
100 100 100 98 98 100 100 99 99 100 98 96 97 98 98 99 101 99 99 100 100 100 100 100 100 100 99 99 99 99 100 100 99 99 100 100 98 99 98 96 96 96 95 94 90 85 80 72 64 56 50 48 45 41 39 36 34 33 30 28 27 24 25 25 24 24 24 23 24 25 27 30 31 31
101 100 100 99 98 100 100 99 99 100 97 92 91 94 96 96 100 100 99 100 99 98 99 98 99 100 100 100 100 99 99 99 99 99 98 98 99 99 99 98 98 98 98 98 96 93 89 84 78 69 60 54 51 49 47 44 42 39 37 35 33 31 29 29 28 28 27 25 23 24 26 30 33 34
102 100 100 100 99 100 100 99 100 100 99 94 88 90 93 93 97 100 100 100 99 98 98 98 97 98 99 99 99 100 101 100 99 99 96 95 95 96 96 96 98 98 98 98 100 98 96 92 87 81 74 65 58 54 53 51 49 47 45 41 38 37 35 34 33 32 31 31 28 26 25 27 31 35
101 101 100 100 99 100 99 99 100 99 100 98 91 89 91 92 95 98 98 100 99 99 100 99 98 99 99 99 98 98 100 100 99 100 99 97 96 97 97 97 96 96 96 97 99 99 99 98 95 90 85 79 72 65 59 57 55 53 51 48 44 41 38 37 37 36 34 34 33 30 28 26 27 29
98 100 101 100 99 100 100 99 100 100 99 99 96 92 89 88 91 94 97 100 100 99 100 99 99 100 98 98 99 98 98 99 100 100 100 100 100 99 99 99 98 97 97 97 98 98 97 98 99 97 94 90 85 79 72 67 64 60 57 54 50 47 44 40 39 38 38 37 35 34 33 29 27 25
96 99 99 101 100 100 100 100 100 101 99 97 97 96 90 84 85 87 90 97 100 99 98 98 99 99 95 93 96 98 98 98 99 99 98 99 100 100 99 99 97 98 98 97 98 97 94 94 96 98 98 96 93 90 85 79 75 70 66 63 58 54 50 46 43 40 39 38 37 36 35 33 32 29
97 97 97 100 100 99 101 100 99 101 99 95 97 99 94 86 81 79 82 89 96 98 99 99 100 100 97 94 95 98 99 100 99 98 96 97 98 99 100 99 97 97 96 96 99 99 94 92 94 94 95 96 96 95 92 89 84 80 76 72 69 66 61 56 52 47 44 42 40 39 38 36 34 32
97 97 97 100 101 99 100 100 99 101 100 96 98 100 99 92 83 77 78 82 88 94 98 99 99 99 99 98 98 99 98 98 97 97 95 95 95 95 96 99 100 98 94 93 97 99 96 94 93 92 91 93 93 94 95 94 91 88 85 80 77 75 73 69 65 61 56 52 49 48 46 42 38 34
97 99 98 100 101 100 100 100 99 100 100 99 99 100 100 97 91 85 83 81 80 82 87 91 94 96 97 98 98 99 98 96 94 94 94 94 95 95 94 94 97 97 92 90 94 97 95 94 94 93 91 89 89 88 90 92 93 92 91 88 84 81 78 76 74 72 70 67 63 61 58 53 48 43
97 101 101 100 100 100 100 100 100 100 100 100 100 100 100 100 98 97 95 90 83 76 74 77 80 84 89 93 95 96 97 96 95 94 95 96 98 98 95 92 92 92 90 90 95 97 95 93 94 96 95 93 90 88 88 90 91 92 92 91 89 86 83 80 77 76 75 74 73 71 70 68 65 61
94 101 101 100 100 100 100 101 100 100 101 101 100 100 100 100 100 100 100 98 94 85 75 71 71 75 81 87 93 96 95 92 91 90 92 96 99 100 98 96 94 90 89 92 97 99 97 93 91 93 95 93 91 89 87 88 89 89 89 89 87 86 84 82 80 78 77 76 75 75 75 76 76 74
89 98 102 100 101 101 100 101 101 100 100 100 100 100 100 100 100 100 100 100 99 96 91 85 83 84 82 82 88 97 99 96 93 89 85 88 95 100 100 100 99 95 94 97 100 100 99 96 93 92 91 91 92 90 86 85 86 87 87 85 81 79 79 78 77 76 74 73 71 68 67 69 70 71
79 89 93 91 93 97 99 100 101 101 101 101 101 101 101 100 100 100 100 100 99 99 99 98 97 97 94 88 88 93 96 96 94 91 83 79 84 92 97 99 100 99 99 100 100 99 100 99 98 95 93 93 93 91 86 83 83 85 87 86 82 77 74 72 72 71 69 68 65 61 57 56 56 56
67 71 74 74 77 85 91 95 98 100 101 102 101 101 100 100 99 99 100 100 100 99 100 100 100 100 100 98 95 95 95 94 97 96 87 75 74 82 91 97 100 100 99 100 100 100 100 100 100 99 98 96 94 92 90 86 82 82 84 86 85 81 76 72 69 67 65 64 63 61 57 55 53 50
51 52 59 65 69 75 80 85 90 94 98 100 100 99 99 99 100 100 100 99 100 100 99 100 100 99 100 100 99 98 95 91 95 99 91 77 71 74 83 93 98 100 100 100 99 100 100 99 100 100 99 99 97 94 92 91 87 85 84 85 85 85 82 78 73 69 67 64 62 61 59 57 56 54
44 46 51 56 59 63 67 71 76 82 89 93 96 98 99 100 101 102 102 101 101 100 100 100 100 100 100 99 99 98 94 87 90 99 97 87 80 80 86 93 95 96 99 100 99 100 100 100 100 100 98 99 99 96 94 94 93 89 86 85 84 84 84 82 80 77 74 71 68 66 64 61 59 57
45 44 44 44 43 46 51 57 63 68 74 80 87 92 95 98 98 98 97 97 99 100 100 100 100 100 100 100 98 99 97 90 89 96 100 98 94 94 97 98 94 93 96 99 100 100 100 99 100 99 98 98 100 99 98 98 97 93 90 87 86 85 84 84 83 82 81 81 78 75 72 69 66 62
46 43 42 40 39 40 44 50 57 62 65 68 74 79 84 89 92 94 95 96 98 99 98 98 99 99 100 100 100 100 100 97 95 97 100 101 99 99 100 99 97 97 98 98 98 100 100 100 100 100 98 98 99 100 100 99 97 95 92 89 88 88 86 86 86 86 85 85 85 84 82 79 75 71
48 46 45 44 45 48 51 54 59 63 64 65 66 68 72 77 81 86 92 97 100 100 99 99 100 100 99 100 100 100 100 99 97 97 100 100 99 100 100 98 96 98 98 95 94 96 99 99 99 100 100 99 99 100 100 99 98 96 94 91 90 89 88 88 88 88 86 86 86 86 85 83 80 77
51 51 50 49 50 53 57 62 66 67 67 68 67 65 65 67 70 74 79 86 93 99 101 100 99 100 100 100 100 100 100 100 98 96 98 100 100 100 100 99 97 98 99 98 95 94 95 97 97 98 100 100 100 100 99 99 100 99 98 96 94 92 91 90 89 89 88 88 87 86 84 82 79 77
55 55 54 54 53 55 58 64 69 71 72 72 71 69 67 66 67 69 71 73 79 89 97 100 100 100 100 100 100 99 99 100 100 97 96 98 100 100 100 100 100 98 97 98 99 97 95 95 94 94 95 97 100 100 97 96 98 100 100 99 98 96 95 94 92 91 89 88 87 84 82 77 73 72
58 58 58 57 58 59 61 64 68 71 73 74 73 73 73 71 69 70 69 65 65 71 83 94 100 101 100 99 100 101 100 99 100 100 98 99 99 100 100 100 100 99 96 94 96 97 97 96 96 93 91 93 98 100 97 96 97 98 98 99 100 98 97 97 97 95 92 90 87 82 78 74 69 68
62 62 61 60 60 60 62 63 65 66 69 71 70 70 71 70 68 67 65 62 60 59 65 76 88 97 101 101 100 100 100 100 100 100 100 100 99 99 100 100 99 100 98 94 93 93 94 97 100 98 94 92 94 95 96 96 93 88 88 91 95 97 98 97 94 92 91 89 85 81 78 73 68 65
65 66 65 64 63 62 62 63 65 66 67 68 69 69 68 66 65 64 63 62 61 57 55 59 66 78 91 99 102 100 99 100 100 99 99 100 100 99 100 100 99 100 100 98 96 93 93 96 99 100 100 98 94 90 89 86 77 71 71 75 79 85 91 90 86 85 86 83 79 78 79 78 75 73
65 67 68 67 66 64 63 64 66 67 67 67 69 72 71 67 64 65 66 64 62 59 57 55 54 58 68 83 95 100 100 99 100 100 100 100 100 100 100 100 100 100 100 99 99 97 96 94 90 88 89 89 88 90 94 92 84 78 75 73 71 75 81 83 83 83 83 80 79 79 81 81 82 82
65 65 66 68 67 66 65 64 63 64 66 66 65 67 70 68 66 67 69 69 65 62 59 56 54 52 53 60 73 88 98 100 99 99 100 100 100 100 100 100 100 99 98 97 96 96 96 96 95 92 87 83 85 92 98 100 98 95 89 80 75 76 77 77 78 79 78 79 81 81 80 81 84 85
69 67 66 68 68 68 67 66 63 61 62 63 62 62 64 65 63 62 63 64 64 63 60 57 56 53 50 49 53 64 79 92 99 101 100 99 98 99 99 98 98 99 99 97 93 89 87 88 91 95 96 94 95 98 99 99 100 100 97 89 83 81 79 77 76 77 79 84 86 84 83 87 93 95
71 70 70 71 71 70 69 69 67 63 61 62 62 60 60 60 57 55 56 59 61 62 61 59 57 55 52 50 48 49 55 69 84 96 101 101 99 98 98 99 99 99 100 99 95 90 86 84 85 90 94 96 98 100 100 99 99 100 99 93 88 86 86 83 80 79 82 88 92 91 89 90 93 94
72 73 73 74 74 74 72 72 71 68 65 64 62 61 61 61 57 55 58 62 63 63 62 61 59 57 54 50 48 47 46 49 59 74 90 100 102 100 98 100 100 99 100 99 94 89 87 86 88 92 95 94 95 97 99 99 99 100 99 93 87 88 93 94 89 86 87 90 93 95 95 94 94 93
71 72 75 77 77 78 78 77 75 72 69 67 64 63 63 62 60 57 59 61 61 61 61 61 60 59 57 53 50 49 48 46 46 51 64 82 96 101 100 100 100 100 100 100 96 93 91 88 86 89 94 94 93 94 94 93 94 97 98 94 88 85 87 88 87 88 90 89 88 89 89 89 90 93
Wind_Speed
33 35 37 35 30 28 29 30 30 32 33 30 28 26 25 26 24 20 18 20 23 23 22 23 24 25 26 27 26 26 26 24 23 24 24 26 28 27 24 26 30 33 35 35 34 31 31 33 35 38 38 38 40 40 38 36 37 37 37 38 36 33 33 35 34 31 27 24 25 26 26 28 29 30
35 38 39 33 27 26 26 28 29 30 32 31 28 25 24 25 26 26 22 20 20 18 19 23 24 23 24 26 28 29 27 25 24 24 24 25 27 27 24 23 27 32 33 33 32 32 33 34 34 36 37 36 36 38 40 41 42 39 36 38 38 35 34 36 36 33 30 26 25 24 22 23 25 28
36 41 40 31 26 26 25 26 29 30 30 30 27 24 22 23 26 29 27 24 23 18 15 19 24 25 23 23 27 31 31 28 27 26 25 25 25 27 26 23 24 28 32 33 33 34 35 36 35 34 35 37 37 37 39 42 44 44 38 35 37 39 37 37 38 36 33 31 28 26 23 20 19 22
37 41 37 30 29 29 27 25 25 29 29 27 26 23 20 22 25 28 29 28 28 25 17 15 20 24 23 21 23 28 32 32 30 29 27 25 24 25 26 26 24 25 28 31 33 35 35 35 36 35 34 36 38 38 39 40 43 46 44 39 38 40 40 37 38 38 36 35 33 30 27 24 21 20
41 39 34 31 32 31 30 27 21 24 26 25 26 24 20 19 22 26 29 29 30 29 22 15 16 20 21 21 21 24 30 33 32 31 28 26 26 25 26 26 26 25 24 25 29 32 34 34 35 35 35 35 36 37 38 39 40 42 44 43 41 41 41 39 39 38 37 37 37 34 31 28 25 22
42 37 33 34 33 31 29 26 18 18 22 22 24 24 21 18 18 23 28 28 28 30 27 20 16 17 19 21 22 23 26 30 32 31 30 29 28 28 27 26 27 27 25 24 25 28 31 32 33 34 35 35 35 35 36 36 37 37 38 41 42 41 42 43 41 37 36 36 36 35 33 31 29 25
38 35 35 35 33 31 30 26 18 13 15 19 21 22 22 19 16 18 24 27 26 28 29 25 19 16 17 19 21 23 24 27 30 32 31 30 29 28 28 27 27 27 26 25 25 26 27 28 31 33 35 35 34 34 35 34 34 34 34 37 41 42 44 45 44 42 40 38 35 35 34 32 31 30
33 33 34 35 32 31 31 28 22 17 11 13 17 18 19 20 19 16 17 22 24 25 27 28 24 19 17 18 19 22 24 25 26 29 31 31 30 29 28 27 27 26 26 26 26 26 26 27 28 31 33 34 34 34 34 34 34 34 34 36 40 42 42 41 41 42 43 40 37 37 37 35 34 33
31 31 32 33 30 29 31 30 27 22 13 6 9 14 16 18 19 17 13 15 20 23 25 27 27 24 20 18 17 18 22 25 24 25 28 30 30 30 29 28 27 26 26 26 27 28 28 27 28 29 31 33 33 33 33 34 34 34 35 35 38 41 42 41 39 39 42 43 43 41 39 37 36 36
29 30 31 30 27 27 30 29 29 25 17 11 5 5 10 13 16 17 15 11 13 17 22 24 27 27 25 23 22 18 19 22 25 26 26 26 27 28 28 28 27 26 25 26 28 29 29 29 29 29 30 31 32 32 32 33 34 35 36 36 36 37 41 44 43 41 40 41 43 44 43 40 37 35
28 28 28 27 25 26 28 28 28 27 21 16 11 4 4 8 11 15 16 13 10 11 15 19 22 24 24 23 25 24 21 20 23 25 26 26 26 26 26 26 25 25 25 25 26 27 27 28 29 29 30 30 31 31 31 32 34 35 36 37 35 34 37 42 44 43 40 37 35 38 39 38 37 36
29 27 27 27 26 26 27 26 25 24 23 22 17 9 1 4 6 10 13 14 13 10 10 13 16 20 21 19 20 23 23 22 22 23 24 25 25 24 23 23 23 23 23 23 24 25 26 27 28 29 30 30 30 30 30 31 33 34 35 36 36 35 35 38 42 44 45 42 39 38 36 35 36 37
28 27 28 27 25 25 25 22 21 20 21 22 19 13 7 3 0 4 7 9 11 11 10 10 11 13 16 17 17 19 22 23 22 22 23 24 24 23 22 21 21 21 22 23 23 24 25 25 26 28 29 30 30 30 31 31 32 33 34 34 35 35 35 35 37 39 41 43 45 45 43 41 40 40
27 26 27 26 24 24 24 22 21 20 20 18 15 13 11 9 7 3 2 5 6 8 9 9 9 10 11 13 14 16 18 18 18 19 20 22 23 24 24 23 23 22 22 22 23 24 24 24 25 26 27 28 29 30 31 31 32 32 32 33 33 34 34 34 35 36 36 38 40 42 43 43 43 43
27 26 25 26 25 26 26 24 23 23 21 17 12 9 9 9 10 8 3 3 3 4 6 7 8 8 8 9 10 11 12 13 13 14 15 16 18 22 26 27 26 26 25 24 23 23 23 24 25 26 26 26 28 29 30 30 30 31 31 32 32 33 33 33 34 34 35 36 37 38 39 40 40 40
25 26 25 26 26 27 27 24 26 28 24 16 11 9 8 8 9 9 6 4 3 1 2 3 5 5 5 6 7 8 9 9 9 10 10 11 13 17 22 25 27 28 28 28 26 25 24 24 25 25 26 26 27 27 27 28 29 30 31 31 32 32 33 33 33 33 34 34 35 36 38 39 39 39
24 24 25 26 27 28 26 25 30 34 27 17 12 9 7 7 8 7 6 5 4 2 2 2 2 3 3 4 5 5 7 8 8 9 9 9 10 13 16 19 20 21 24 28 30 29 29 27 27 26 26 26 27 27 27 27 28 29 29 30 31 32 32 32 33 33 33 34 34 35 36 37 38 38
25 23 25 28 29 29 27 28 34 35 30 22 15 11 9 8 7 6 5 5 3 3 1 2 3 2 3 4 5 5 6 7 8 9 10 9 9 10 11 12 13 14 17 21 26 29 31 31 30 29 27 27 27 27 27 27 28 28 29 29 29 30 31 31 32 32 32 33 34 34 35 36 36 37
29 25 26 28 30 32 32 32 33 32 30 25 18 13 11 8 6 4 3 3 4 5 4 1 1 2 4 5 6 6 6 6 6 7 9 10 9 9 9 10 12 13 14 16 18 22 27 31 33 33 31 30 29 28 27 27 27 27 28 29 29 29 30 30 30 30 31 32 33 34 35 35 36 36
33 29 28 29 32 36 36 34 32 30 29 25 19 14 11 7 5 2 1 1 2 3 3 2 1 2 4 4 5 6 7 7 7 7 8 9 10 11 11 12 12 13 14 16 16 17 19 23 28 31 32 33 33 32 32 30 28 27 27 27 28 29 30 30 30 29 29 29 30 31 33 34 35 36
34 31 29 30 34 37 36 33 32 31 29 25 21 18 14 10 7 5 3 2 4 4 3 3 4 6 6 4 4 5 6 7 8 8 9 9 10 11 13 14 14 13 14 16 16 17 18 19 20 23 27 31 33 35 36 35 34 32 30 28 27 27 28 29 29 29 29 28 28 28 29 31 32 34
35 32 30 31 34 36 34 32 30 29 28 26 22 21 18 14 10 8 5 4 5 6 5 4 4 5 6 5 5 5 6 7 7 9 10 9 10 11 12 13 13 13 15 15 15 17 19 19 18 18 20 25 30 33 36 37 37 36 35 34 32 31 30 29 28 28 28 28 28 27 27 28 29 31
36 34 33 33 34 34 32 30 27 25 25 24 21 21 21 18 13 10 9 7 6 6 6 6 5 5 6 7 7 6 6 7 8 9 10 11 12 13 13 12 13 15 16 15 15 18 19 19 19 19 19 20 24 27 31 34 36 38 37 36 36 35 35 34 33 32 31 30 30 29 28 27 27 29
38 36 36 36 35 34 31 27 24 22 21 20 19 19 20 19 17 14 12 11 9 7 7 6 5 5 6 7 8 8 7 6 7 8 9 12 14 15 15 14 15 16 16 14 14 16 18 18 19 19 20 20 20 21 25 29 32 35 38 39 38 37 36 37 37 37 37 36 35 33 32 30 29 30
38 38 38 36 35 34 30 24 20 19 18 16 16 17 17 17 17 17 16 13 11 9 9 7 5 4 3 4 6 6 5 5 6 7 9 11 14 16 17 17 17 18 17 15 14 14 15 18 20 20 20 20 18 18 21 25 27 30 33 36 38 38 37 37 38 38 38 39 39 39 38 37 36 35
37 37 37 34 32 31 28 22 18 17 16 14 14 15 14 14 14 15 15 14 12 9 8 8 7 4 2 2 3 4 4 4 4 5 7 9 12 15 18 19 20 19 17 16 16 15 14 16 20 21 22 21 20 18 18 21 24 27 28 30 32 34 36 37 37 38 38 38 39 39 40 40 40 40
36 36 35 32 29 29 28 24 20 18 17 16 15 13 12 11 11 12 12 12 11 8 5 5 5 6 6 6 5 5 5 5 4 4 5 7 9 13 16 19 21 21 18 17 17 17 17 16 17 20 23 23 22 22 21 20 20 23 26 27 27 28 30 33 35 36 36 36 36 36 37 37 38 39
35 35 34 33 32 31 31 29 25 21 20 18 17 14 13 11 10 11 11 11 10 7 4 4 5 6 7 8 8 8 8 8 6 5 6 6 8 10 13 16 20 22 21 20 20 19 19 19 18 18 20 22 23 23 23 22 21 20 22 25 25 26 27 29 32 34 34 34 34 35 36 37 38 38
35 35 36 36 36 36 35 35 33 31 28 25 21 18 16 13 12 12 11 10 10 8 6 4 5 7 8 8 9 11 12 11 9 7 8 8 8 10 11 13 17 21 23 24 23 21 20 20 19 18 17 19 21 22 22 22 22 21 20 22 24 26 26 27 28 30 32 33 34 35 37 37 37 38
35 36 37 38 40 40 39 39 39 39 36 32 27 24 22 20 20 20 18 16 13 11 9 7 6 7 9 10 12 14 15 15 11 9 9 10 10 10 11 11 13 17 22 25 26 24 21 20 20 19 19 19 19 20 20 21 21 21 21 21 22 23 26 28 28 28 29 30 31 32 33 34 35 36
36 37 38 39 40 40 40 40 40 40 39 38 35 33 31 29 28 27 25 22 18 15 13 10 8 7 8 10 12 14 17 18 15 10 9 9 9 9 11 12 12 13 16 22 26 27 25 23 21 21 21 21 20 19 19 19 20 20 20 21 21 21 23 27 30 30 30 28 28 28 29 30 32 34
36 37 38 38 39 40 41 42 42 42 43 43 42 41 39 36 33 30 26 22 19 17 15 13 10 8 7 8 9 11 13 16 16 13 9 8 8 8 10 12 12 11 11 15 21 25 27 27 25 22 21 21 20 19 18 19 19 19 18 19 20 21 21 23 26 29 30 30 29 29 29 29 30 31
35 37 39 40 41 42 43 44 45 45 45 44 44 43 42 41 39 36 33 30 26 22 18 16 14 11 8 6 7 8 10 11 12 13 12 9 8 10 11 13 12 11 10 10 14 19 23 25 25 24 22 21 20 20 20 21 22 21 21 20 20 21 22 21 21 23 26 28 29 30 30 31 31 31
36 38 40 41 43 44 44 44 45 45 45 45 44 44 44 43 43 43 42 39 34 29 25 21 18 15 12 10 7 6 7 8 9 12 13 11 8 8 10 12 12 11 11 11 10 13 16 19 21 22 22 22 22 21 21 23 24 24 24 23 22 22 22 22 20 20 21 23 24 26 28 30 31 31
37 39 40 41 42 43 43 43 43 44 44 44 44 44 43 43 44 44 44 43 40 36 32 26 22 20 17 14 11 8 6 5 6 9 13 13 11 7 7 10 12 12 12 13 12 11 12 15 18 21 22 23 24 24 25 25 25 24 24 25 25 24 23 22 22 22 21 22 22 23 25 28 29 30
38 39 40 41 41 42 42 42 42 42 42 42 43 43 43 43 43 43 43 43 42 41 39 35 30 26 21 18 16 14 10 7 2 4 9 12 12 8 5 7 11 13 13 14 13 13 13 14 15 18 21 24 25 27 28 28 27 27 26 25 25 25 24 23 23 23 24 24 25 25 27 28 29 28
38 39 39 40 40 40 41 41 41 40 40 40 41 41 41 41 42 42 41 41 40 41 41 40 38 33 27 22 20 17 14 11 8 4 2 7 10 9 6 4 7 11 14 16 15 14 14 16 17 17 19 22 26 29 30 28 27 28 28 27 27 26 26 26 26 27 28 28 28 28 29 29 30 29
37 38 38 38 39 39 39 39 39 39 39 39 39 39 39 39 39 40 40 40 40 40 40 40 40 38 35 30 26 22 19 16 13 10 7 2 5 8 8 5 4 4 8 13 16 16 16 17 19 20 20 22 26 29 30 29 29 29 29 29 29 28 28 29 30 31 31 31 30 31 31 31 31 30
36 37 37 37 37 37 38 38 38 38 38 38 38 38 38 38 38 39 40 40 40 40 40 40 40 40 38 36 32 29 25 22 19 15 12 9 6 5 6 7 6 3 2 5 11 16 18 19 20 21 21 23 25 26 25 26 27 26 25 27 29 31 32 32 32 32 32 32 31 31 30 30 30 29
35 35 35 35 36 36 36 36 36 36 36 37 37 37 37 37 37 38 39 39 39 40 40 40 40 39 38 37 35 33 31 28 25 22 17 13 10 8 7 7 8 7 5 5 5 9 15 19 22 23 23 24 25 24 22 22 23 22 22 23 25 28 31 33 33 33 34 33 32 31 30 30 29 28
35 35 34 34 34 34 34 35 35 35 35 35 35 35 35 35 36 36 37 37 38 38 39 39 39 39 38 38 37 36 34 33 30 27 23 17 13 10 9 8 9 9 9 10 9 9 11 13 17 22 24 25 25 25 24 25 25 25 25 24 22 23 25 27 29 31 33 33 33 33 33 32 31 30
34 34 34 33 33 33 33 33 33 33 33 34 34 34 34 34 34 34 35 35 36 36 37 37 38 38 38 38 37 36 35 35 34 32 28 23 17 13 11 9 10 10 11 13 14 14 14 13 14 17 20 23 26 28 29 30 29 27 25 25 24 23 22 23 23 25 28 31 34 35 34 33 32 33
33 33 33 33 32 32 32 32 32 32 32 32 32 33 33 33 33 33 34 35 35 35 36 36 36 37 37 37 36 36 35 35 34 33 32 29 24 18 14 11 10 11 12 14 15 16 16 16 16 16 17 19 22 25 29 31 31 29 28 27 27 26 24 24 23 22 24 28 31 33 34 34 34 35
33 32 32 32 31 31 31 31 30 30 30 30 30 31 31 31 31 32 33 34 34 34 35 35 35 35 35 35 35 35 35 35 33 32 32 31 28 23 19 15 11 10 11 14 17 18 18 17 17 16 17 19 20 22 24 26 28 29 29 28 27 26 25 24 24 24 24 26 29 30 31 32 33 34
32 32 31 31 30 30 30 30 29 29 29 29 29 29 30 30 30 30 31 32 32 33 33 33 33 34 34 34 34 34 34 34 33 32 32 31 29 27 25 20 14 10 9 11 14 17 19 19 18 17 18 20 21 23 24 24 25 25 26 26 26 25 24 24 25 26 27 29 31 31 31 31 31 31
Wind_Direction
322 320 321 317 306 298 295 289 286 288 284 282 285 278 260 253 251 251 253 251 248 246 244 244 242 237 236 238 238 238 235 230 227 228 228 226 226 223 219 217 215 214 216 219 222 225 230 233 236 239 238 232 229 226 221 221 225 220 213 214 211 203 202 202 204 209 209 199 191 193 192 190 192 193
322 323 324 320 312 307 302 290 284 287 285 279 282 282 268 257 251 247 248 251 251 251 247 242 241 239 233 232 233 234 233 229 224 225 226 227 229 226 220 219 218 214 212 214 218 220 224 227 228 230 233 232 230 229 224 222 227 227 215 209 211 207 202 202 203 205 206 199 194 195 193 190 192 192
322 325 325 322 321 318 312 298 282 279 282 278 277 283 273 262 256 248 246 249 248 243 246 247 242 240 237 232 229 228 229 230 227 224 225 227 230 230 226 221 221 219 215 213 215 217 219 223 225 226 227 227 226 227 227 223 225 231 226 213 210 209 205 203 201 202 203 200 197 198 196 194 192 189
323 325 326 327 328 326 323 316 289 274 278 277 273 280 276 266 261 251 244 246 247 239 240 255 245 235 234 233 229 225 223 226 228 226 224 224 227 229 227 224 223 224 221 218 216 217 219 221 224 227 227 226 224 223 226 223 220 225 228 226 221 216 211 208 206 203 201 200 199 199 199 198 195 190
326 329 330 331 332 331 330 331 307 276 275 274 269 274 279 273 264 254 244 242 247 243 236 247 244 227 226 228 225 223 220 220 224 226 223 223 224 224 224 223 224 225 225 224 222 221 221 220 221 225 226 226 225 223 223 224 221 222 225 227 228 223 214 212 213 208 203 202 202 200 200 201 201 197
328 331 333 331 332 337 339 340 329 289 275 271 269 270 274 279 271 257 247 241 246 245 235 235 241 225 218 223 222 219 217 216 218 221 221 221 222 223 224 223 223 224 224 225 227 226 225 224 223 224 224 223 224 223 223 224 222 222 223 224 228 229 219 212 213 212 208 206 204 203 202 202 205 203
328 330 332 330 333 344 348 349 352 327 285 267 267 269 267 271 276 265 251 242 243 246 237 231 234 229 217 216 218 218 217 215 215 217 218 219 220 222 224 225 224 223 222 221 224 227 227 226 227 228 226 223 221 221 221 222 221 220 221 221 224 228 225 216 213 212 211 209 206 206 206 205 207 207
330 331 331 330 336 348 350 350 359 358 324 269 263 268 263 261 270 273 257 243 241 244 240 230 226 229 224 216 214 216 217 215 212 212 213 215 218 220 221 223 224 223 221 220 220 223 226 226 227 229 230 226 222 219 217 218 218 217 218 219 218 220 223 221 217 212 209 208 207 208 208 208 209 209
333 334 332 330 338 349 348 349 357 360 355 319 268 266 263 260 265 269 261 244 238 239 240 235 227 227 231 227 217 212 213 210 204 203 206 207 210 214 216 219 221 222 221 220 220 220 221 223 225 227 230 229 225 221 218 217 217 217 217 217 217 218 221 225 226 222 215 210 208 209 209 209 211 210
336 335 335 334 344 352 347 347 354 357 5 19 5 285 263 259 261 265 264 252 237 234 237 238 234 230 232 233 227 215 205 199 191 188 191 193 196 201 208 213 216 217 219 220 221 221 220 219 220 221 225 228 225 223 220 218 218 219 218 217 218 218 219 222 226 226 220 213 210 209 208 209 211 209
338 336 339 344 352 354 348 347 349 354 4 13 18 20 260 251 252 258 263 261 250 237 233 234 236 232 225 224 224 217 206 197 190 186 184 184 187 190 197 204 207 209 213 215 216 218 219 217 217 217 218 222 223 221 219 218 218 218 218 218 218 218 218 220 221 219 216 215 214 211 208 208 208 208
339 341 348 353 356 352 346 345 346 354 4 4 6 23 40 238 242 247 255 260 258 251 238 230 232 231 222 214 213 210 207 205 203 199 195 191 189 189 191 196 199 201 206 209 211 212 214 215 215 214 214 215 216 216 216 216 217 218 218 218 218 218 217 217 219 219 219 221 221 220 221 219 214 215
342 347 351 351 351 349 343 341 348 359 5 0 0 15 36 61 228 241 236 241 246 244 240 230 224 226 224 218 214 212 213 214 215 215 212 207 203 199 196 195 195 196 199 203 207 210 211 213 214 214 214 213 213 212 212 211 213 215 217 217 218 218 216 215 216 218 220 222 222 224 227 227 224 225
343 347 350 345 344 347 345 345 353 360 2 1 6 21 32 44 52 47 197 198 210 218 221 221 219 220 221 220 220 221 223 225 224 225 224 222 220 216 212 208 203 200 198 200 204 206 208 210 212 213 214 213 213 212 211 211 211 212 213 214 215 216 216 214 213 213 214 217 219 221 222 224 224 225
344 347 349 346 345 349 349 350 355 356 357 2 12 27 32 39 51 53 67 137 151 177 189 196 206 215 221 222 224 226 229 230 228 227 226 225 226 226 224 222 217 211 208 207 207 207 208 209 211 213 213 213 214 215 215 214 213 213 214 214 214 214 214 213 212 211 211 212 214 216 217 220 221 220
349 351 353 353 354 355 350 351 358 355 352 358 9 15 20 30 49 59 65 68 64 101 179 185 186 197 214 220 226 233 235 233 229 227 225 221 219 221 222 224 224 221 217 216 215 214 213 212 211 212 212 213 214 215 215 216 216 216 216 216 216 215 215 216 214 213 213 213 214 214 215 217 218 218
357 357 359 1 2 360 356 358 2 355 345 347 4 12 13 23 41 60 77 74 53 27 340 280 218 195 201 203 211 228 235 237 237 234 229 222 219 219 217 219 223 222 219 218 219 219 218 216 215 213 211 212 213 214 214 215 215 215 216 217 217 217 217 218 219 218 217 216 216 216 217 217 217 217
7 4 4 5 3 2 3 4 0 352 344 339 346 359 10 25 37 46 68 80 76 70 39 309 287 261 230 210 206 213 215 221 232 240 240 234 230 229 226 222 223 222 219 218 219 220 220 220 219 217 214 213 213 213 213 214 215 214 214 215 216 216 217 218 219 219 219 218 218 218 218 218 218 218
13 13 8 5 4 5 5 1 354 350 347 341 338 342 353 15 35 33 43 61 63 75 87 87 324 278 247 230 222 221 221 217 217 228 237 238 238 238 234 228 226 224 222 218 218 220 220 221 221 220 219 218 218 216 214 214 215 215 214 215 215 215 216 216 217 217 218 218 219 219 219 219 219 218
14 16 11 6 8 7 1 355 352 352 350 346 344 339 332 342 7 354 290 344 13 39 51 52 325 261 247 241 234 230 232 234 227 219 219 223 230 233 234 233 229 226 223 220 219 219 219 219 221 221 221 221 222 222 220 219 218 217 217 216 216 217 217 217 217 217 217 217 217 219 219 220 220 220
14 17 14 12 11 5 356 351 353 355 350 346 350 346 330 318 311 294 276 259 255 267 294 288 269 266 262 252 243 239 237 238 238 234 225 219 222 229 234 237 235 231 228 224 222 221 220 217 217 218 219 221 223 224 224 224 224 223 223 222 222 221 220 220 219 219 219 218 217 217 218 219 221 222
16 16 16 18 11 1 354 353 355 356 351 346 348 347 338 326 308 292 288 279 251 243 244 230 223 250 267 264 252 246 242 235 239 245 243 236 233 232 235 240 242 243 239 231 226 224 223 220 217 214 215 219 222 224 225 225 225 225 225 226 226 227 226 225 224 222 221 220 219 219 219 219 220 221
18 17 17 19 10 359 356 356 355 356 351 345 346 345 340 335 325 308 300 298 279 249 235 226 219 234 257 268 266 259 253 244 244 251 252 250 247 242 241 242 244 246 244 235 228 226 224 222 220 215 212 216 220 221 222 224 225 224 224 224 224 225 227 227 228 227 226 224 223 221 221 221 222 222
18 17 17 17 8 359 359 357 353 355 351 344 345 347 342 340 335 325 314 305 290 270 256 252 252 249 254 267 271 269 268 263 261 262 257 253 252 250 247 243 241 245 246 241 235 231 226 223 221 217 216 218 220 218 217 219 222 223 223 223 223 223 224 225 227 228 229 229 228 227 225 224 224 225
18 17 16 13 5 1 3 359 354 357 353 345 349 352 345 337 331 325 321 312 298 282 274 269 269 271 266 266 268 269 277 286 290 284 272 262 257 252 248 245 244 245 245 243 244 240 230 225 222 218 217 219 220 220 216 215 217 219 221 223 223 223 223 223 224 225 226 228 229 229 227 226 225 226
21 19 16 13 8 7 10 8 4 4 0 356 359 355 341 329 325 325 324 321 312 297 281 269 264 264 255 240 244 256 266 276 292 296 285 273 264 257 251 247 247 247 244 244 246 244 234 228 223 219 218 217 217 219 218 215 214 215 217 219 221 222 222 222 222 222 223 224 225 225 225 225 224 225
22 21 18 20 22 23 24 24 20 16 14 13 11 1 347 338 332 327 327 328 324 311 284 251 239 237 233 224 221 231 244 247 255 275 279 275 270 263 256 249 246 247 247 248 248 244 236 231 226 223 222 220 218 219 221 219 216 214 214 215 217 218 220 221 222 222 222 223 223 222 222 223 224 225
25 26 25 29 35 36 37 37 34 31 29 25 20 14 6 355 343 337 340 344 340 327 292 238 218 216 219 219 218 226 237 242 246 256 264 268 271 269 262 252 245 243 242 244 246 244 237 231 228 226 225 224 223 223 224 225 223 219 217 216 215 215 216 217 219 221 222 222 222 222 221 221 221 222
28 32 33 35 38 40 41 42 42 41 40 38 34 30 25 19 15 14 12 8 3 359 345 299 257 237 228 222 218 224 232 239 246 256 259 260 264 269 269 260 247 239 236 237 238 237 233 229 227 226 225 226 227 228 228 229 229 226 223 221 219 217 216 215 215 218 220 221 222 223 224 224 223 222
28 32 35 36 38 39 40 42 43 43 44 43 42 41 39 37 36 34 30 25 20 17 8 346 309 276 258 242 231 229 233 238 245 258 263 260 261 265 268 266 254 241 234 233 233 229 224 223 223 222 223 226 228 229 228 229 231 230 228 225 223 221 220 218 216 216 217 219 221 222 224 226 226 226
28 31 34 35 37 38 40 43 45 45 45 45 44 45 44 44 43 40 37 33 29 25 18 6 344 314 292 271 255 246 244 244 246 253 261 262 262 264 267 267 262 249 237 233 233 229 225 224 222 220 221 224 224 222 221 223 228 229 228 226 224 223 223 222 220 219 219 219 219 220 221 223 224 226
27 29 31 33 35 36 37 40 43 44 45 44 44 45 45 45 45 44 42 39 35 29 23 16 3 342 318 295 279 270 263 258 252 245 242 252 257 261 269 269 264 259 248 235 229 226 224 225 225 222 219 219 220 217 216 219 224 227 227 226 224 223 222 222 223 223 223 222 222 222 222 222 223 224
26 28 30 30 32 33 34 35 37 39 41 43 43 43 43 44 45 44 42 39 35 31 26 20 13 4 352 330 301 282 275 272 259 241 231 235 245 250 258 263 261 262 265 251 228 218 218 220 223 223 220 218 220 220 220 221 223 224 225 226 225 222 221 220 221 223 225 225 226 225 226 226 226 227
26 28 29 30 31 31 32 33 33 34 35 37 40 41 41 42 43 43 41 39 37 35 32 28 23 19 12 3 346 311 283 271 257 241 233 235 243 250 254 257 256 256 260 260 243 222 217 217 219 222 224 224 224 224 223 222 222 222 223 224 225 224 223 222 221 222 223 225 226 227 227 228 229 229
26 28 29 29 30 30 31 32 32 32 32 33 35 38 39 40 40 41 40 38 37 37 37 34 32 30 26 21 16 4 336 295 255 236 235 244 256 263 256 253 255 253 251 251 250 240 229 222 218 220 223 226 227 228 227 225 223 222 221 222 223 225 226 228 228 228 228 228 228 229 230 230 230 231
27 27 27 27 27 28 29 30 30 31 31 31 32 34 36 37 38 39 37 36 36 37 37 38 37 35 32 31 29 24 16 7 340 229 230 244 257 266 258 245 249 252 249 246 248 248 242 233 225 221 222 224 226 228 228 227 226 224 222 222 221 222 224 227 230 232 234 233 233 233 233 233 232 232
26 26 26 25 25 26 27 27 28 29 29 30 31 31 32 34 35 37 36 36 36 37 37 38 38 37 36 36 34 31 29 28 28 27 256 243 249 259 267 246 239 248 250 247 245 245 243 239 233 229 226 226 227 228 230 230 229 227 226 226 225 225 225 227 231 234 236 238 239 240 240 240 238 235
23 23 23 23 23 24 24 25 25 26 27 28 29 30 31 32 33 35 36 36 36 36 36 37 38 38 38 38 36 33 31 30 28 26 20 338 256 256 263 261 243 245 253 248 243 241 241 239 236 232 230 230 230 231 231 231 231 231 230 229 230 229 228 230 233 235 237 239 241 244 245 247 247 245
21 20 20 20 21 21 22 22 23 23 24 26 27 28 28 29 31 33 33 33 34 34 35 36 36 35 36 36 37 37 35 31 27 22 18 11 352 303 275 269 268 276 285 258 246 241 238 237 236 236 236 238 239 239 238 238 241 241 238 235 234 234 232 232 234 237 238 239 241 243 244 247 249 248
19 18 18 18 18 19 19 20 20 21 22 23 24 25 26 27 29 30 30 31 31 32 33 34 34 34 33 33 35 37 37 35 32 26 20 12 2 347 322 297 287 285 285 283 273 257 246 242 242 245 249 251 253 253 251 251 254 254 249 243 239 237 237 237 238 238 239 240 240 239 239 240 241 240
15 16 15 15 15 16 17 17 18 18 19 20 21 23 24 25 27 28 29 29 29 29 30 31 32 32 32 32 32 33 34 35 34 29 23 16 9 358 339 315 299 289 278 271 270 272 266 257 250 248 250 254 255 253 249 246 245 247 249 249 246 242 241 241 241 242 243 243 241 239 238 238 239 237
12 12 13 13 12 12 14 14 15 16 17 17 18 20 21 22 24 26 27 28 28 28 28 29 29 30 30 31 31 30 30 31 32 30 25 19 12 4 351 328 308 296 285 274 268 265 265 265 261 254 249 248 246 244 242 241 240 240 244 249 251 249 246 244 242 241 241 241 240 239 237 234 232 233
10 10 11 11 10 10 11 12 12 13 14 15 15 16 18 19 21 23 24 25 25 25 25 26 27 27 27 29 30 29 29 29 29 28 27 24 18 11 2 347 323 304 291 281 274 269 265 263 263 263 261 256 249 244 242 241 239 239 242 246 249 248 245 241 238 236 237 238 239 241 241 238 235 235
9 9 9 9 9 9 10 10 10 11 11 12 13 14 15 15 17 20 21 21 22 23 23 23 24 24 24 25 27 27 28 27 26 26 26 25 22 20 15 2 339 315 298 284 275 273 271 268 264 262 261 259 257 254 250 245 241 241 243 245 245 241 235 230 227 225 227 230 234 237 240 242 244 246
6 6 7 7 8 8 8 8 8 8 9 9 10 12 12 13 14 17 19 19 18 19 20 20 21 21 21 21 22 24 24 24 24 25 24 22 21 22 21 14 359 336 310 291 278 273 273 272 268 263 260 258 257 256 256 252 248 246 245 245 244 242 239 236 234 230 229 232 235 237 238 239 242 245